West Memphis, AR

11:29 AM CST on November 22, 2019 (GMT -0600)
West Memphis Municipal

Weather History for KAWM - August, 2019

Change the Weather History Date:

Wednesday, August 28, 2019

  Actual Average Record
Temperature  
Mean Temperature 78 °F -  
Max Temperature 89 °F 89 °F 98 °F (1983)
Min Temperature 66 °F 67 °F 0 °F (2015)
Cooling Degree Days 14    
Growing Degree Days 28 (Base 50)    
Moisture  
Dew Point 66 °F    
Average Humidity 71    
Maximum Humidity 100    
Minimum Humidity 37    
Precipitation  
Precipitation 0.00 in - - ()
Sea Level Pressure  
Sea Level Pressure 30.04 in    
Wind  
Wind Speed 4 mph (NNE)    
Max Wind Speed 12 mph    
Max Gust Speed -    
Visibility 9 miles    
Events      
Averages and records for this station are not official NWS values.
T = Trace of Precipitation, MM = Missing Value Source: NWS Daily Summary

Daily Weather History Graph

Daily Weather History Graph

Search for Another Location

Airport or City:

Astronomy

Aug. 28, 2019 Rise Set
Actual Time 6:30 AM CDT 7:33 PM CDT
Civil Twilight 6:04 AM CDT 7:59 PM CDT
Nautical Twilight 5:33 AM CDT 8:30 PM CDT
Astronomical Twilight 5:01 AM CDT 9:02 PM CDT
Moon 4:09 AM CDT (8/28) 6:39 PM CDT (8/28)
Length of Visible Light 13h 55m
Length of Day
13h 03m
Waning Crescent, 4% of the Moon is Illuminated
Aug 28
Waning Crescent
Aug 30
New
Sep 5
First Quarter
Sep 13
Full
Sep 21
Last Quarter

Hourly Weather History & Observations

Time (CDT) Temp. Heat Index Dew Point Humidity Pressure Visibility Wind Dir Wind Speed Gust Speed Precip Events Conditions
12:53 AM 73.9 °F - 73.0 °F 97% 29.99 in 9.0 mi Calm Calm - N/A   Clear
1:53 AM 73.9 °F - 73.0 °F 97% 29.98 in 9.0 mi Calm Calm - N/A   Clear
2:53 AM 73.9 °F - 73.0 °F 97% 29.98 in 10.0 mi Calm Calm - N/A   Clear
3:53 AM 73.9 °F - 73.0 °F 97% 29.99 in 9.0 mi NNW 3.5 mph - N/A   Clear
4:53 AM 72.0 °F - 71.1 °F 97% 30.01 in 7.0 mi Calm Calm - N/A   Clear
5:53 AM 72.0 °F - 72.0 °F 100% 30.03 in 6.0 mi Calm Calm - N/A   Clear
6:53 AM 71.1 °F - 71.1 °F 100% 30.05 in 4.0 mi NW 4.6 mph - N/A   Clear
7:53 AM 75.0 °F - 71.1 °F 87% 30.06 in 10.0 mi NNE 4.6 mph - N/A   Clear
8:53 AM 79.0 °F - 69.1 °F 72% 30.07 in 10.0 mi NE 6.9 mph - N/A   Clear
9:53 AM 82.0 °F 84.5 °F 66.9 °F 60% 30.08 in 10.0 mi NE 11.5 mph - N/A   Clear
10:53 AM 82.9 °F 84.4 °F 64.0 °F 53% 30.09 in 10.0 mi NE 10.4 mph - N/A   Clear
11:53 AM 86.0 °F 87.3 °F 64.0 °F 48% 30.08 in 10.0 mi NE 9.2 mph - N/A   Clear
12:53 PM 86.0 °F 87.6 °F 64.9 °F 49% 30.07 in 10.0 mi North 10.4 mph - N/A   Clear
1:53 PM 87.1 °F 88.9 °F 64.9 °F 48% 30.06 in 10.0 mi North 9.2 mph - N/A   Clear
2:53 PM 88.0 °F 87.6 °F 60.1 °F 39% 30.05 in 10.0 mi North 10.4 mph - N/A   Clear
3:53 PM 88.0 °F 87.1 °F 59.0 °F 37% 30.04 in 10.0 mi North 11.5 mph - N/A   Clear
4:53 PM 88.0 °F 87.6 °F 60.1 °F 39% 30.03 in 10.0 mi NNE 6.9 mph - N/A   Clear
5:53 PM 86.0 °F 85.4 °F 59.0 °F 40% 30.02 in 10.0 mi North 6.9 mph - N/A   Clear
6:53 PM 82.0 °F 83.0 °F 62.1 °F 51% 30.03 in 10.0 mi NNE 4.6 mph - N/A   Clear
7:53 PM 75.0 °F - 62.1 °F 64% 30.04 in 10.0 mi NNE 4.6 mph - N/A   Clear
8:53 PM 71.1 °F - 64.0 °F 78% 30.04 in 10.0 mi Calm Calm - N/A   Clear
9:53 PM 70.0 °F - 64.0 °F 81% 30.05 in 10.0 mi Calm Calm - N/A   Clear
10:53 PM 69.1 °F - 64.9 °F 87% 30.06 in 10.0 mi Calm Calm - N/A   Clear
11:53 PM 66.9 °F - 63.0 °F 87% 30.05 in 10.0 mi Calm Calm - N/A   Clear